Regional Weather Roundup
Issued by NWS

Home | Current Version | Previous Version | Text Only | Print | Product List | Glossary Off
Versions: 1 2 3 4 5 6 7 8 9 10 11 12 13 14 15 16 17 18 19 20 21 22 23 24 25 26 27 28 29 30 31 32 33 34 35 36 37 38 39 40 41 42 43 44 45 46 47 48 49 50

000
ASUS43 KLMK 021502
RWRKY
KENTUCKY REGIONAL WEATHER ROUNDUP
NATIONAL WEATHER SERVICE LOUISVILLE KY
1000 AM EST MON MAR 02 2015

NOTE "FAIR" INDICATES FEW OR NO CLOUDS BELOW 12,000 FEET
WITH NO SIGNIFICANT WEATHER AND/OR OBSTRUCTIONS TO VISIBILITY.

KYZ001>023-026-027-061>063-070>075-021600-
WESTERN AND SOUTH CENTRAL KENTUCKY

CITY           SKY/WX    TMP DP  RH WIND       PRES   REMARKS
PADUCAH        SUNNY     30  19  63 E14       30.53R WCI  19
HENDERSON      PTSUNNY   27  18  69 NE10      30.56R WCI  17
OWENSBORO      PTSUNNY   28  19  69 NE9       30.56S WCI  19
HOPKINSVILLE   SUNNY     31  22  70 NE12      30.50F WCI  22
BOWLING GREEN  MOSUNNY   33  23  66 NE9       30.53R WCI  25
GLASGOW        NOT AVBL
$$

KYZ024-025-028>034-038-045-046-053-021600-
NORTH CENTRAL KENTUCKY

CITY           SKY/WX    TMP DP  RH WIND       PRES   REMARKS
LOUISVILLE/SDF PTSUNNY   31  17  56 N5        30.55R WCI  26
LOUISVILLE/LOU SUNNY     30  16  56 N6        30.55R WCI  24
FORT KNOX      MOSUNNY   29  19  66 NE6       30.50S WCI  23
$$

KYZ035>037-039>044-047>052-055>060-089>105-021600-
NORTHEAST KENTUCKY

CITY           SKY/WX    TMP DP  RH WIND       PRES   REMARKS
LEXINGTON      SUNNY     28  19  69 N6        30.52R WCI  22
COVINGTON      PTSUNNY   25  15  66 N3        30.52R
FRANKFORT      SUNNY     28  17  63 N3        30.52R
$$

KYZ054-064>069-076>088-106>120-021600-
SOUTHEAST KENTUCKY

CITY           SKY/WX    TMP DP  RH WIND       PRES   REMARKS
JACKSON        PTSUNNY   31  24  75 W3        30.47R
LONDON         PTSUNNY   35  27  72 NE8       30.48R WCI  29
SOMERSET       NOT AVBL
MIDDLESBORO    CLOUDY    34  32  93 N8        30.46R WCI  27
MONTICELLO     PTSUNNY   34  29  82 NE9       30.52S WCI  27
$$




USA.gov is the U.S. government's official web portal to all federal, state and local government web resources and services.